• En España
  • Lista de países
  • Para 7 días
  • Temperatura del agua
  • Mapa Satelital
  • El tiempo en el mapa
  • Informadores
  • user-avatar
    Iniciar sesión

    Tiempo cada hora Pazardzhik

    Hoy, 14 Noviembre, Miércoles

    Tiempo Temperatura Precipitaciones Viento Presión Humedad
    00:00 +9°C° 0 mm 1 mps 752 mmHg 82%
    01:00 +9°C° 0 mm 1 mps 752 mmHg 82%
    02:00 +9°C° 0 mm 1 mps 751 mmHg 82%
    03:00 +8°C° 0 mm 1 mps 751 mmHg 82%
    04:00 +8°C° 0 mm 1 mps 751 mmHg 81%
    05:00 +8°C° 0 mm 1 mps 751 mmHg 81%
    06:00 +9°C° 0 mm 1 mps 750 mmHg 78%
    07:00 +9°C° 0 mm 1 mps 750 mmHg 75%
    08:00 +9°C° 0 mm 1 mps 750 mmHg 72%
    09:00 +12°C° 0 mm 1 mps 750 mmHg 65%
    10:00 +14°C° 0 mm 1 mps 750 mmHg 58%
    11:00 +16°C° 0 mm 1 mps 750 mmHg 50%
    12:00 +16°C° 0 mm 1 mps 749 mmHg 51%
    13:00 +16°C° 0 mm 2 mps 749 mmHg 51%
    14:00 +17°C° 0 mm 2 mps 749 mmHg 52%
    15:00 +16°C° 0 mm 2 mps 748 mmHg 58%
    16:00 +15°C° 0 mm 1 mps 748 mmHg 63%
    17:00 +14°C° 0 mm 1 mps 748 mmHg 69%
    18:00 +13°C° 0 mm 1 mps 748 mmHg 72%
    19:00 +12°C° 0 mm 1 mps 748 mmHg 76%
    20:00 +12°C° 0 mm 1 mps 748 mmHg 79%
    21:00 +11°C° 0 mm 1 mps 748 mmHg 81%
    22:00 +11°C° 0 mm 1 mps 748 mmHg 83%
    23:00 +11°C° 0 mm 1 mps 749 mmHg 84%

    Mañana, 15 Noviembre, Jueves

    Tiempo Temperatura Precipitaciones Viento Presión Humedad
    00:00 +10°C° 0 mm 1 mps 748 mmHg 84%
    01:00 +10°C° 0 mm 1 mps 748 mmHg 84%
    02:00 +10°C° 0 mm 1 mps 748 mmHg 84%
    03:00 +10°C° 0.1 mm 1 mps 748 mmHg 84%
    04:00 +9°C° 0.1 mm 2 mps 747 mmHg 83%
    05:00 +9°C° 0.1 mm 2 mps 747 mmHg 82%
    06:00 +9°C° 0.7 mm 2 mps 747 mmHg 82%
    07:00 +9°C° 0.7 mm 3 mps 748 mmHg 81%
    08:00 +9°C° 0.7 mm 3 mps 748 mmHg 81%
    09:00 +9°C° 0.5 mm 3 mps 748 mmHg 77%
    10:00 +9°C° 0.5 mm 3 mps 749 mmHg 73%
    11:00 +10°C° 0.5 mm 3 mps 749 mmHg 69%
    12:00 +10°C° 0 mm 3 mps 749 mmHg 64%
    13:00 +11°C° 0 mm 3 mps 748 mmHg 59%
    14:00 +12°C° 0 mm 3 mps 748 mmHg 54%
    15:00 +10°C° 0 mm 2 mps 748 mmHg 58%
    16:00 +9°C° 0 mm 2 mps 748 mmHg 62%
    17:00 +9°C° 0 mm 1 mps 748 mmHg 67%
    18:00 +9°C° 0 mm 1 mps 748 mmHg 70%
    19:00 +8°C° 0 mm 1 mps 749 mmHg 73%
    20:00 +8°C° 0 mm 1 mps 749 mmHg 77%
    21:00 +7°C° 0 mm 1 mps 749 mmHg 77%
    22:00 +7°C° 0 mm 1 mps 750 mmHg 77%
    23:00 +7°C° 0 mm 1 mps 750 mmHg 76%

    Pasado mañana, 16 Noviembre, Viernes

    Tiempo Temperatura Precipitaciones Viento Presión Humedad
    00:00 +7°C° 0.1 mm 1 mps 750 mmHg 76%
    01:00 +7°C° 0.1 mm 1 mps 750 mmHg 75%
    02:00 +7°C° 0.1 mm 1 mps 750 mmHg 75%
    03:00 +7°C° 0.2 mm 1 mps 750 mmHg 76%
    04:00 +7°C° 0.2 mm 1 mps 750 mmHg 78%
    05:00 +6°C° 0.2 mm 1 mps 750 mmHg 80%
    06:00 +6°C° 0.1 mm 1 mps 750 mmHg 80%
    07:00 +6°C° 0.1 mm 1 mps 751 mmHg 81%
    08:00 +6°C° 0.1 mm 1 mps 751 mmHg 82%
    09:00 +8°C° 0 mm 1 mps 751 mmHg 75%
    10:00 +8°C° 0 mm 2 mps 752 mmHg 69%
    11:00 +9°C° 0 mm 2 mps 752 mmHg 63%
    12:00 +9°C° 0 mm 2 mps 751 mmHg 60%
    13:00 +10°C° 0 mm 2 mps 751 mmHg 58%
    14:00 +10°C° 0 mm 3 mps 751 mmHg 55%
    15:00 +9°C° 0 mm 2 mps 751 mmHg 60%
    16:00 +8°C° 0 mm 2 mps 751 mmHg 65%
    17:00 +7°C° 0 mm 2 mps 751 mmHg 69%
    18:00 +6°C° 0.1 mm 2 mps 751 mmHg 72%
    19:00 +6°C° 0.1 mm 2 mps 752 mmHg 75%
    20:00 +5°C° 0.1 mm 2 mps 752 mmHg 78%
    21:00 +6°C° 0 mm 1 mps 752 mmHg 79%
    22:00 +5°C° 0 mm 1 mps 753 mmHg 80%
    23:00 +5°C° 0 mm 1 mps 753 mmHg 81%

    17 Noviembre, Sábado

    Tiempo Temperatura Precipitaciones Viento Presión Humedad
    00:00 +4°C° 0 mm 1 mps 753 mmHg 81%
    01:00 +4°C° 0 mm 1 mps 753 mmHg 81%
    02:00 +3°C° 0 mm 1 mps 753 mmHg 82%
    03:00 +3°C° 0 mm 1 mps 753 mmHg 81%
    04:00 +3°C° 0 mm 1 mps 753 mmHg 80%
    05:00 +3°C° 0 mm 1 mps 753 mmHg 79%
    06:00 +3°C° 0 mm 1 mps 753 mmHg 77%
    07:00 +3°C° 0 mm 1 mps 753 mmHg 75%
    08:00 +3°C° 0 mm 1 mps 754 mmHg 73%
    09:00 +5°C° 0 mm 1 mps 754 mmHg 66%
    10:00 +6°C° 0 mm 1 mps 754 mmHg 59%
    11:00 +8°C° 0 mm 1 mps 754 mmHg 51%
    12:00 +8°C° 0 mm 1 mps 753 mmHg 51%
    13:00 +9°C° 0 mm 1 mps 753 mmHg 50%
    14:00 +9°C° 0 mm 1 mps 752 mmHg 49%
    15:00 +8°C° 0 mm 1 mps 752 mmHg 55%
    16:00 +7°C° 0 mm 1 mps 752 mmHg 61%
    17:00 +6°C° 0 mm 1 mps 752 mmHg 67%
    18:00 +5°C° 0 mm 1 mps 753 mmHg 70%
    19:00 +4°C° 0 mm 1 mps 753 mmHg 73%
    20:00 +3°C° 0 mm 1 mps 754 mmHg 77%
    21:00 +3°C° 0 mm 1 mps 754 mmHg 78%
    22:00 +3°C° 0 mm 1 mps 754 mmHg 79%
    23:00 +3°C° 0 mm 1 mps 754 mmHg 80%

    18 Noviembre, Domingo

    Tiempo Temperatura Precipitaciones Viento Presión Humedad
    00:00 +3°C° 0 mm 1 mps 754 mmHg 81%
    01:00 +2°C° 0 mm 1 mps 754 mmHg 82%
    02:00 +2°C° 0 mm 1 mps 753 mmHg 83%
    03:00 +2°C° 0 mm 1 mps 753 mmHg 83%
    04:00 +2°C° 0 mm 1 mps 753 mmHg 83%
    05:00 +3°C° 0 mm 1 mps 753 mmHg 82%
    06:00 +3°C° 0 mm 1 mps 753 mmHg 81%
    07:00 +3°C° 0 mm 1 mps 753 mmHg 79%
    08:00 +3°C° 0 mm 1 mps 753 mmHg 78%
    09:00 +5°C° 0 mm 1 mps 752 mmHg 72%
    10:00 +7°C° 0 mm 1 mps 752 mmHg 66%
    11:00 +8°C° 0 mm 1 mps 752 mmHg 60%
    12:00 +8°C° 0 mm 2 mps 751 mmHg 59%
    13:00 +8°C° 0 mm 2 mps 750 mmHg 58%
    14:00 +9°C° 0 mm 2 mps 749 mmHg 57%
    15:00 +8°C° 0 mm 1 mps 749 mmHg 63%
    16:00 +7°C° 0 mm 1 mps 748 mmHg 68%
    17:00 +6°C° 0 mm 1 mps 748 mmHg 74%
    18:00 +5°C° 0 mm 1 mps 748 mmHg 76%
    19:00 +5°C° 0 mm 1 mps 748 mmHg 78%
    20:00 +4°C° 0 mm 1 mps 747 mmHg 80%
    21:00 +4°C° 0 mm 1 mps 747 mmHg 80%
    22:00 +4°C° 0 mm 1 mps 747 mmHg 80%
    23:00 +4°C° 0 mm 1 mps 746 mmHg 80%

    19 Noviembre, Lunes

    Tiempo Temperatura Precipitaciones Viento Presión Humedad
    00:00 +3°C° 0 mm 0 mps 746 mmHg 79%
    01:00 +3°C° 0 mm 0 mps 745 mmHg 79%
    02:00 +3°C° 0 mm 0 mps 744 mmHg 78%
    03:00 +3°C° 0 mm 0 mps 744 mmHg 77%
    04:00 +3°C° 0 mm 0 mps 743 mmHg 76%
    05:00 +4°C° 0 mm 0 mps 743 mmHg 75%
    06:00 +4°C° 0 mm 0 mps 743 mmHg 74%
    07:00 +4°C° 0 mm 0 mps 743 mmHg 74%
    08:00 +5°C° 0 mm 1 mps 742 mmHg 73%
    09:00 +6°C° 0 mm 1 mps 742 mmHg 68%
    10:00 +8°C° 0 mm 1 mps 742 mmHg 62%
    11:00 +9°C° 0 mm 1 mps 742 mmHg 57%
    12:00 +9°C° 0 mm 1 mps 742 mmHg 58%
    13:00 +10°C° 0 mm 1 mps 741 mmHg 59%
    14:00 +9°C° 0 mm 2 mps 741 mmHg 60%
    15:00 +9°C° 0.1 mm 1 mps 740 mmHg 65%
    16:00 +8°C° 0.1 mm 1 mps 740 mmHg 71%
    17:00 +7°C° 0.1 mm 1 mps 740 mmHg 76%
    18:00 +7°C° 0.2 mm 1 mps 740 mmHg 79%
    19:00 +7°C° 0.2 mm 1 mps 740 mmHg 81%
    20:00 +6°C° 0.2 mm 1 mps 740 mmHg 84%
    21:00 +6°C° 0.4 mm 1 mps 740 mmHg 85%
    22:00 +6°C° 0.4 mm 1 mps 740 mmHg 86%
    23:00 +6°C° 0.4 mm 1 mps 740 mmHg 87%
    Mostrar más